| time (UTC) | temp C | wind direction | speed KPH | gust KPH | rain 1hr cm | rain 24hr cm | rain mn cm | humidity % | barometer mb |
| 20260507021251 | 7 | 173 | 0.0 | 1.6 | 0.00 | 0.00 | 0.84 | 94 | 1009.8 |
| 20260507020751 | 7 | 154 | 0.0 | 0.0 | 0.00 | 0.00 | 0.84 | 94 | 1009.8 |
| 20260507020253 | 7 | 122 | 0.0 | 1.6 | 0.00 | 0.00 | 0.84 | 94 | 1010.2 |
| 20260507015751 | 7 | 215 | 0.0 | 1.6 | 0.00 | 0.00 | 0.84 | 94 | 1010.2 |
| 20260507015251 | 7 | 277 | 0.0 | 1.6 | 0.00 | 0.00 | 0.84 | 94 | 1010.2 |
| 20260507014758 | 7 | 192 | 0.0 | 1.6 | 0.00 | 0.00 | 0.84 | 94 | 1010.2 |
| 20260507014251 | 7 | 256 | 0.0 | 1.6 | 0.00 | 0.00 | 0.84 | 94 | 1010.2 |
| 20260507013751 | 7 | 243 | 0.0 | 1.6 | 0.00 | 0.00 | 0.84 | 94 | 1010.2 |
| 20260507013251 | 7 | 348 | 1.6 | 4.8 | 0.00 | 0.00 | 0.84 | 94 | 1010.2 |
| 20260507012752 | 7 | 75 | 0.0 | 1.6 | 0.00 | 0.00 | 0.84 | 94 | 1010.2 |
| 20260507012251 | 7 | 194 | 0.0 | 3.2 | 0.00 | 0.00 | 0.84 | 94 | 1010.2 |
| 20260507011752 | 7 | 354 | 0.0 | 1.6 | 0.00 | 0.00 | 0.84 | 94 | 1010.2 |
| 20260507011251 | 7 | 309 | 0.0 | 1.6 | 0.00 | 0.00 | 0.84 | 94 | 1010.2 |
| 20260507010751 | 7 | 308 | 0.0 | 0.0 | 0.00 | 0.00 | 0.84 | 94 | 1009.8 |
| 20260507010252 | 7 | 296 | 0.0 | 1.6 | 0.00 | 0.00 | 0.84 | 94 | 1009.8 |
| 20260507005751 | 7 | 325 | 0.0 | 3.2 | 0.00 | 0.00 | 0.84 | 94 | 1009.8 |
| 20260507005251 | 7 | 111 | 0.0 | 3.2 | 0.00 | 0.00 | 0.84 | 94 | 1009.8 |
| 20260507004751 | 7 | 247 | 1.6 | 4.8 | 0.00 | 0.00 | 0.84 | 94 | 1009.8 |
| 20260507004251 | 7 | 226 | 1.6 | 4.8 | 0.00 | 0.00 | 0.84 | 94 | 1009.5 |
| 20260507003752 | 7 | 39 | 0.0 | 3.2 | 0.00 | 0.00 | 0.84 | 93 | 1009.8 |
| 20260507003251 | 7 | 281 | 0.0 | 1.6 | 0.00 | 0.00 | 0.84 | 93 | 1009.5 |
| 20260507002752 | 7 | 355 | 0.0 | 3.2 | 0.00 | 0.00 | 0.84 | 93 | 1009.5 |
| 20260507002254 | 7 | 157 | 0.0 | 4.8 | 0.00 | 0.00 | 0.84 | 94 | 1009.5 |
| 20260507001751 | 7 | 324 | 1.6 | 8.0 | 0.00 | 0.00 | 0.84 | 94 | 1009.5 |
| 20260507001251 | 7 | 331 | 0.0 | 3.2 | 0.00 | 0.00 | 0.84 | 94 | 1009.5 |
| 20260507000751 | 7 | 247 | 3.2 | 6.4 | 0.00 | 0.00 | 0.84 | 94 | 1009.5 |
| 20260507000251 | 7 | 242 | 0.0 | 4.8 | 0.00 | 0.00 | 0.84 | 94 | 1009.5 |
| 20260506235751 | 7 | 245 | 0.0 | 3.2 | 0.00 | 0.00 | 0.84 | 94 | 1009.5 |
| 20260506235252 | 7 | 345 | 1.6 | 4.8 | 0.00 | 0.00 | 0.84 | 94 | 1009.1 |
| 20260506234751 | 7 | 218 | 3.2 | 9.7 | 0.00 | 0.00 | 0.84 | 94 | 1009.1 |
| 20260506234252 | 7 | 247 | 0.0 | 0.0 | 0.00 | 0.00 | 0.84 | 94 | 1009.1 |
| 20260506233752 | 7 | 310 | 0.0 | 1.6 | 0.00 | 0.00 | 0.84 | 93 | 1008.8 |
| 20260506233252 | 7 | 88 | 0.0 | 3.2 | 0.00 | 0.00 | 0.84 | 93 | 1009.1 |
| 20260506232751 | 7 | 260 | 0.0 | 3.2 | 0.00 | 0.00 | 0.84 | 93 | 1009.1 |
| 20260506232251 | 7 | 332 | 0.0 | 3.2 | 0.00 | 0.00 | 0.84 | 93 | 1008.8 |
| 20260506231751 | 7 | 302 | 0.0 | 1.6 | 0.00 | 0.00 | 0.84 | 93 | 1008.8 |
| 20260506231251 | 7 | 10 | 0.0 | 4.8 | 0.00 | 0.00 | 0.84 | 93 | 1008.8 |
| 20260506230752 | 7 | 43 | 1.6 | 6.4 | 0.00 | 0.00 | 0.84 | 93 | 1008.8 |
| 20260506230251 | 7 | 303 | 1.6 | 3.2 | 0.00 | 0.00 | 0.84 | 93 | 1008.8 |
| 20260506225751 | 7 | 313 | 1.6 | 4.8 | 0.00 | 0.00 | 0.84 | 93 | 1008.8 |
| 20260506225251 | 7 | 51 | 0.0 | 3.2 | 0.00 | 0.00 | 0.84 | 93 | 1008.8 |
| 20260506224751 | 7 | 317 | 0.0 | 3.2 | 0.00 | 0.00 | 0.84 | 93 | 1008.8 |
| 20260506224251 | 7 | 242 | 0.0 | 3.2 | 0.00 | 0.00 | 0.84 | 93 | 1008.5 |
| 20260506223751 | 7 | 34 | 0.0 | 4.8 | 0.00 | 0.00 | 0.84 | 93 | 1008.5 |
| 20260506223251 | 7 | 304 | 1.6 | 4.8 | 0.00 | 0.00 | 0.84 | 93 | 1008.5 |
| 20260506222751 | 7 | 282 | 1.6 | 6.4 | 0.00 | 0.00 | 0.84 | 94 | 1008.8 |
| 20260506222251 | 7 | 60 | 1.6 | 6.4 | 0.00 | 0.00 | 0.84 | 94 | 1008.8 |
| 20260506221754 | 7 | 284 | 1.6 | 9.7 | 0.00 | 0.00 | 0.84 | 94 | 1008.8 |
| 20260506221251 | 7 | 323 | 3.2 | 11.3 | 0.00 | 0.00 | 0.84 | 94 | 1008.8 |
| 20260506220753 | 7 | 318 | 3.2 | 4.8 | 0.00 | 0.00 | 0.84 | 94 | 1008.5 |
| 20260506220251 | 7 | 343 | 3.2 | 6.4 | 0.00 | 0.00 | 0.84 | 93 | 1008.5 |
| 20260506215751 | 7 | 260 | 3.2 | 8.0 | 0.00 | 0.00 | 0.84 | 94 | 1008.5 |
| 20260506215252 | 7 | 333 | 3.2 | 6.4 | 0.00 | 0.00 | 0.84 | 93 | 1008.5 |
| 20260506214751 | 7 | 39 | 3.2 | 11.3 | 0.00 | 0.00 | 0.84 | 93 | 1008.5 |
| 20260506214251 | 7 | 283 | 0.0 | 3.2 | 0.00 | 0.00 | 0.84 | 94 | 1008.1 |
| 20260506213751 | 7 | 332 | 1.6 | 6.4 | 0.00 | 0.00 | 0.84 | 94 | 1008.5 |
| 20260506213251 | 7 | 284 | 3.2 | 8.0 | 0.00 | 0.00 | 0.84 | 94 | 1008.1 |
| 20260506212751 | 7 | 290 | 1.6 | 6.4 | 0.00 | 0.00 | 0.84 | 94 | 1008.1 |
| 20260506212251 | 7 | 2 | 1.6 | 8.0 | 0.00 | 0.00 | 0.84 | 94 | 1008.1 |
| 20260506211751 | 7 | 214 | 3.2 | 6.4 | 0.00 | 0.00 | 0.84 | 94 | 1008.1 |
| 20260506211251 | 7 | 119 | 4.8 | 14.5 | 0.00 | 0.00 | 0.84 | 94 | 1008.1 |
| 20260506210751 | 7 | 182 | 4.8 | 9.7 | 0.00 | 0.00 | 0.84 | 94 | 1008.1 |
| 20260506210251 | 7 | 108 | 3.2 | 9.7 | 0.00 | 0.00 | 0.84 | 94 | 1008.1 |
| 20260506205751 | 8 | 242 | 3.2 | 8.0 | 0.00 | 0.00 | 0.84 | 94 | 1007.8 |
| 20260506205252 | 8 | 65 | 3.2 | 9.7 | 0.00 | 0.00 | 0.84 | 93 | 1007.8 |
| 20260506204752 | 8 | 167 | 4.8 | 14.5 | 0.00 | 0.00 | 0.84 | 92 | 1007.8 |
| 20260506204251 | 8 | 5 | 4.8 | 14.5 | 0.00 | 0.00 | 0.84 | 92 | 1007.5 |
| 20260506203751 | 8 | 12 | 4.8 | 12.9 | 0.00 | 0.00 | 0.84 | 91 | 1007.5 |
| 20260506203252 | 8 | 308 | 1.6 | 8.0 | 0.00 | 0.00 | 0.84 | 92 | 1007.5 |
| 20260506202751 | 8 | 16 | 4.8 | 14.5 | 0.00 | 0.00 | 0.84 | 93 | 1007.5 |
| 20260506202252 | 8 | 265 | 1.6 | 4.8 | 0.00 | 0.00 | 0.84 | 92 | 1007.1 |
| 20260506201751 | 8 | 310 | 3.2 | 12.9 | 0.00 | 0.00 | 0.84 | 92 | 1007.1 |
| 20260506201252 | 8 | 19 | 4.8 | 11.3 | 0.00 | 0.00 | 0.84 | 92 | 1007.1 |
| 20260506200752 | 8 | 291 | 3.2 | 8.0 | 0.00 | 0.00 | 0.84 | 93 | 1007.1 |
| 20260506200251 | 8 | 338 | 1.6 | 4.8 | 0.00 | 0.00 | 0.84 | 94 | 1007.1 |
| 20260506195753 | 8 | 138 | 1.6 | 9.7 | 0.00 | 0.00 | 0.84 | 93 | 1007.1 |
| 20260506195251 | 8 | 70 | 3.2 | 9.7 | 0.00 | 0.00 | 0.84 | 94 | 1007.1 |
| 20260506194751 | 8 | 70 | 1.6 | 8.0 | 0.00 | 0.00 | 0.84 | 94 | 1007.1 |
| 20260506194252 | 8 | 207 | 4.8 | 20.9 | 0.00 | 0.00 | 0.81 | 94 | 1006.8 |
| 20260506193752 | 8 | 124 | 3.2 | 6.4 | 0.00 | 0.00 | 0.81 | 94 | 1007.1 |
| 20260506193252 | 9 | 337 | 1.6 | 3.2 | 0.00 | 0.00 | 0.81 | 94 | 1006.8 |
| 20260506192751 | 9 | 30 | 1.6 | 4.8 | 0.00 | 0.00 | 0.81 | 94 | 1007.1 |
| 20260506192251 | 8 | 271 | 1.6 | 4.8 | 0.00 | 0.00 | 0.81 | 94 | 1006.8 |
| 20260506191751 | 8 | 324 | 3.2 | 6.4 | 0.00 | 0.00 | 0.81 | 94 | 1006.8 |
| 20260506191251 | 8 | 309 | 3.2 | 6.4 | 0.00 | 0.00 | 0.81 | 94 | 1006.8 |
| 20260506190751 | 9 | 5 | 3.2 | 9.7 | 0.00 | 0.00 | 0.81 | 94 | 1006.8 |
| 20260506190251 | 9 | 296 | 3.2 | 8.0 | 0.00 | 0.00 | 0.79 | 94 | 1006.8 |
| 20260506185751 | 9 | 295 | 1.6 | 4.8 | 0.00 | 0.00 | 0.79 | 94 | 1006.8 |
| 20260506185251 | 10 | 218 | 1.6 | 6.4 | 0.00 | 0.00 | 0.79 | 94 | 1006.4 |
| 20260506184751 | 10 | 70 | 1.6 | 4.8 | 0.00 | 0.00 | 0.79 | 95 | 1006.4 |
| 20260506184255 | 9 | 188 | 1.6 | 8.0 | 0.00 | 0.00 | 0.79 | 94 | 1006.4 |
| 20260506183752 | 9 | 30 | 3.2 | 4.8 | 0.00 | 0.00 | 0.79 | 94 | 1006.4 |
| 20260506183252 | 9 | 358 | 1.6 | 6.4 | 0.00 | 0.00 | 0.79 | 94 | 1006.4 |
| 20260506182751 | 9 | 350 | 3.2 | 8.0 | 0.00 | 0.00 | 0.76 | 94 | 1006.1 |
| 20260506182252 | 9 | 2 | 1.6 | 6.4 | 0.00 | 0.00 | 0.76 | 94 | 1006.4 |
| 20260506181752 | 9 | 42 | 1.6 | 8.0 | 0.00 | 0.00 | 0.76 | 94 | 1006.4 |
| 20260506181252 | 9 | 354 | 1.6 | 8.0 | 0.00 | 0.00 | 0.76 | 94 | 1006.4 |
| 20260506180753 | 10 | 4 | 0.0 | 3.2 | 0.00 | 0.00 | 0.76 | 94 | 1006.1 |
| 20260506180254 | 10 | 22 | 1.6 | 6.4 | 0.00 | 0.00 | 0.76 | 93 | 1006.1 |
| 20260506175751 | 9 | 45 | 3.2 | 8.0 | 0.00 | 0.00 | 0.76 | 93 | 1006.1 |
| 20260506175251 | 9 | 6 | 3.2 | 9.7 | 0.00 | 0.00 | 0.76 | 94 | 1006.1 |
| 20260506174753 | 9 | 20 | 3.2 | 8.0 | 0.00 | 0.00 | 0.76 | 94 | 1006.1 |
| 20260506174251 | 9 | 101 | 1.6 | 4.8 | 0.00 | 0.00 | 0.76 | 94 | 1006.1 |
| 20260506173752 | 9 | 91 | 1.6 | 4.8 | 0.00 | 0.00 | 0.76 | 94 | 1006.1 |
| 20260506173252 | 9 | 19 | 3.2 | 9.7 | 0.00 | 0.00 | 0.76 | 93 | 1006.1 |
| 20260506172752 | 9 | 52 | 1.6 | 6.4 | 0.00 | 0.00 | 0.76 | 93 | 1006.1 |
| 20260506172251 | 8 | 65 | 4.8 | 11.3 | 0.00 | 0.00 | 0.76 | 93 | 1006.1 |
| 20260506171752 | 9 | 348 | 1.6 | 8.0 | 0.00 | 0.00 | 0.76 | 93 | 1006.1 |
| 20260506171252 | 9 | 54 | 0.0 | 4.8 | 0.00 | 0.00 | 0.76 | 93 | 1006.1 |
| 20260506170326 | 9 | 91 | 0.0 | 3.2 | 0.00 | 0.00 | 0.76 | 94 | 1005.8 |
| 20260506165751 | 9 | 98 | 1.6 | 4.8 | 0.00 | 0.00 | 0.76 | 93 | 1005.8 |
| 20260506165251 | 9 | 314 | 0.0 | 3.2 | 0.00 | 0.00 | 0.76 | 94 | 1005.8 |
| 20260506164751 | 9 | 281 | 4.8 | 14.5 | 0.00 | 0.00 | 0.76 | 93 | 1006.1 |
| 20260506164253 | 10 | 60 | 1.6 | 4.8 | 0.00 | 0.00 | 0.76 | 93 | 1006.1 |
| 20260506163751 | 10 | 10 | 0.0 | 3.2 | 0.00 | 0.00 | 0.76 | 93 | 1006.1 |
| 20260506163252 | 10 | 332 | 1.6 | 4.8 | 0.00 | 0.00 | 0.76 | 94 | 1005.8 |
| 20260506162752 | 10 | 50 | 0.0 | 3.2 | 0.00 | 0.00 | 0.76 | 94 | 1005.8 |
| 20260506162251 | 9 | 347 | 1.6 | 6.4 | 0.00 | 0.00 | 0.76 | 94 | 1005.8 |
| 20260506161751 | 9 | 324 | 1.6 | 4.8 | 0.00 | 0.00 | 0.76 | 94 | 1006.1 |
| 20260506161251 | 9 | 355 | 3.2 | 8.0 | 0.00 | 0.00 | 0.76 | 93 | 1005.8 |
| 20260506160751 | 10 | 303 | 1.6 | 3.2 | 0.00 | 0.00 | 0.74 | 93 | 1005.8 |
| 20260506160251 | 10 | 351 | 0.0 | 3.2 | 0.00 | 0.00 | 0.74 | 94 | 1005.8 |
| 20260506155751 | 10 | 207 | 1.6 | 4.8 | 0.00 | 0.00 | 0.74 | 94 | 1005.8 |
| 20260506155251 | 10 | 192 | 0.0 | 4.8 | 0.00 | 0.00 | 0.74 | 94 | 1005.8 |
| 20260506154752 | 10 | 307 | 0.0 | 1.6 | 0.00 | 0.00 | 0.74 | 93 | 1005.8 |
| 20260506154251 | 10 | 42 | 0.0 | 1.6 | 0.00 | 0.00 | 0.74 | 94 | 1005.8 |
| 20260506153751 | 10 | 0 | 0.0 | 3.2 | 0.00 | 0.00 | 0.74 | 93 | 1005.8 |
| 20260506153252 | 10 | 329 | 0.0 | 3.2 | 0.00 | 0.00 | 0.74 | 94 | 1005.8 |
| 20260506152752 | 10 | 28 | 1.6 | 6.4 | 0.00 | 0.00 | 0.74 | 94 | 1006.1 |
| 20260506152251 | 10 | 324 | 1.6 | 4.8 | 0.00 | 0.00 | 0.71 | 93 | 1006.1 |
| 20260506151751 | 10 | 54 | 1.6 | 6.4 | 0.00 | 0.00 | 0.71 | 93 | 1006.1 |
| 20260506151251 | 11 | 320 | 1.6 | 6.4 | 0.00 | 0.00 | 0.71 | 94 | 1005.8 |
| 20260506150751 | 11 | 349 | 3.2 | 6.4 | 0.00 | 0.00 | 0.71 | 94 | 1005.8 |
| 20260506150251 | 12 | 300 | 1.6 | 4.8 | 0.00 | 0.00 | 0.71 | 95 | 1005.8 |
| 20260506145751 | 12 | 69 | 0.0 | 4.8 | 0.00 | 0.00 | 0.71 | 96 | 1005.4 |
| 20260506145252 | 12 | 0 | 0.0 | 1.6 | 0.00 | 0.00 | 0.71 | 97 | 1005.4 |
| 20260506144752 | 12 | 102 | 0.0 | 3.2 | 0.00 | 0.00 | 0.71 | 97 | 1005.4 |
| 20260506144252 | 12 | 240 | 1.6 | 4.8 | 0.00 | 0.00 | 0.71 | 97 | 1005.1 |
| 20260506143752 | 12 | 274 | 1.6 | 4.8 | 0.00 | 0.00 | 0.71 | 97 | 1005.4 |
| 20260506143252 | 12 | 265 | 1.6 | 4.8 | 0.00 | 0.00 | 0.71 | 97 | 1005.4 |
| 20260506142752 | 12 | 19 | 1.6 | 4.8 | 0.00 | 0.00 | 0.71 | 97 | 1005.4 |
| 20260506142252 | 12 | 309 | 0.0 | 4.8 | 0.00 | 0.00 | 0.71 | 97 | 1005.4 |
| 20260506141751 | 12 | 180 | 1.6 | 6.4 | 0.00 | 0.00 | 0.71 | 97 | 1005.4 |
| 20260506141252 | 12 | 26 | 0.0 | 3.2 | 0.00 | 0.00 | 0.71 | 97 | 1005.4 |
| 20260506140753 | 12 | 32 | 1.6 | 4.8 | 0.00 | 0.00 | 0.71 | 97 | 1005.4 |
| 20260506140251 | 12 | 302 | 0.0 | 3.2 | 0.00 | 0.00 | 0.71 | 97 | 1005.4 |
| 20260506135752 | 12 | 256 | 0.0 | 6.4 | 0.00 | 0.00 | 0.69 | 97 | 1005.4 |
| 20260506135252 | 11 | 295 | 0.0 | 1.6 | 0.00 | 0.00 | 0.69 | 97 | 1005.8 |
| 20260506134751 | 11 | 258 | 1.6 | 4.8 | 0.00 | 0.00 | 0.69 | 97 | 1005.8 |
| 20260506134252 | 11 | 263 | 0.0 | 3.2 | 0.00 | 0.00 | 0.69 | 97 | 1005.8 |
| 20260506133752 | 11 | 342 | 0.0 | 1.6 | 0.00 | 0.00 | 0.69 | 97 | 1005.8 |
| 20260506133252 | 11 | 98 | 0.0 | 1.6 | 0.00 | 0.00 | 0.66 | 97 | 1006.1 |
| 20260506132751 | 11 | 223 | 0.0 | 1.6 | 0.00 | 0.00 | 0.64 | 97 | 1006.1 |
| 20260506132252 | 11 | 243 | 1.6 | 6.4 | 0.00 | 0.00 | 0.64 | 97 | 1006.1 |
| 20260506131752 | 11 | 83 | 0.0 | 3.2 | 0.00 | 0.00 | 0.61 | 97 | 1006.1 |
| 20260506131252 | 11 | 267 | 1.6 | 4.8 | 0.00 | 0.00 | 0.58 | 96 | 1006.4 |
| 20260506130751 | 11 | 285 | 1.6 | 3.2 | 0.00 | 0.00 | 0.56 | 96 | 1006.1 |
| 20260506130251 | 11 | 303 | 0.0 | 3.2 | 0.00 | 0.00 | 0.51 | 96 | 1006.1 |
| 20260506125752 | 11 | 49 | 0.0 | 0.0 | 0.00 | 0.00 | 0.48 | 96 | 1006.1 |
| 20260506125251 | 11 | 8 | 0.0 | 1.6 | 0.00 | 0.00 | 0.48 | 96 | 1006.1 |
| 20260506124753 | 11 | 94 | 0.0 | 0.0 | 0.00 | 0.00 | 0.46 | 96 | 1006.1 |
| 20260506124252 | 11 | 75 | 0.0 | 0.0 | 0.00 | 0.00 | 0.43 | 96 | 1006.1 |
| 20260506123751 | 10 | 357 | 0.0 | 0.0 | 0.00 | 0.00 | 0.41 | 96 | 1005.8 |
| 20260506123251 | 10 | 173 | 0.0 | 1.6 | 0.00 | 0.00 | 0.38 | 95 | 1005.8 |
| 20260506122753 | 10 | 169 | 0.0 | 0.0 | 0.00 | 0.00 | 0.36 | 96 | 1005.8 |
| 20260506122251 | 10 | 359 | 0.0 | 1.6 | 0.00 | 0.00 | 0.33 | 96 | 1005.8 |
| 20260506121752 | 10 | 331 | 0.0 | 1.6 | 0.00 | 0.00 | 0.33 | 95 | 1005.8 |
| 20260506121251 | 10 | 324 | 0.0 | 1.6 | 0.00 | 0.00 | 0.30 | 95 | 1005.8 |
| 20260506120751 | 10 | 352 | 0.0 | 3.2 | 0.00 | 0.00 | 0.30 | 95 | 1005.8 |
| 20260506120257 | 10 | 344 | 0.0 | 3.2 | 0.00 | 0.00 | 0.30 | 95 | 1005.8 |
| 20260506115751 | 10 | 17 | 0.0 | 3.2 | 0.00 | 0.00 | 0.28 | 95 | 1006.1 |
| 20260506115252 | 10 | 18 | 1.6 | 4.8 | 0.00 | 0.00 | 0.28 | 95 | 1006.1 |
| 20260506114751 | 10 | 26 | 0.0 | 3.2 | 0.00 | 0.00 | 0.28 | 96 | 1006.1 |
| 20260506114251 | 10 | 128 | 0.0 | 4.8 | 0.00 | 0.00 | 0.25 | 97 | 1006.1 |
| 20260506113752 | 10 | 65 | 1.6 | 6.4 | 0.00 | 0.00 | 0.25 | 98 | 1006.1 |
| 20260506113251 | 10 | 3 | 0.0 | 3.2 | 0.00 | 0.00 | 0.23 | 99 | 1006.1 |
| 20260506112751 | 10 | 295 | 1.6 | 4.8 | 0.00 | 0.00 | 0.18 | 100 | 1006.1 |
| 20260506112251 | 10 | 244 | 0.0 | 1.6 | 0.00 | 0.00 | 0.18 | 100 | 1006.4 |
| 20260506111753 | 10 | 63 | 0.0 | 3.2 | 0.00 | 0.00 | 0.15 | 100 | 1006.1 |
| 20260506111251 | 10 | 30 | 0.0 | 0.0 | 0.00 | 0.00 | 0.15 | 100 | 1006.1 |
| 20260506110751 | 10 | 357 | 0.0 | 0.0 | 0.00 | 0.00 | 0.13 | 100 | 1006.4 |
| 20260506110251 | 10 | 353 | 0.0 | 0.0 | 0.00 | 0.00 | 0.13 | 100 | 1006.1 |
| 20260506105751 | 10 | 354 | 0.0 | 0.0 | 0.00 | 0.00 | 0.13 | 100 | 1006.1 |
| 20260506105251 | 10 | 354 | 0.0 | 0.0 | 0.00 | 0.00 | 0.13 | 100 | 1006.1 |
| 20260506104752 | 9 | 20 | 0.0 | 1.6 | 0.00 | 0.00 | 0.13 | 100 | 1006.1 |
| 20260506104252 | 9 | 356 | 0.0 | 1.6 | 0.00 | 0.00 | 0.10 | 100 | 1006.1 |
| 20260506103752 | 9 | 30 | 0.0 | 1.6 | 0.00 | 0.00 | 0.10 | 100 | 1006.1 |
| 20260506103252 | 9 | 30 | 1.6 | 4.8 | 0.00 | 0.00 | 0.10 | 100 | 1006.1 |
| 20260506102751 | 9 | 238 | 0.0 | 3.2 | 0.00 | 0.00 | 0.10 | 100 | 1006.1 |
| 20260506102251 | 9 | 195 | 0.0 | 3.2 | 0.00 | 0.00 | 0.10 | 100 | 1006.1 |
| 20260506101305 | 9 | 51 | 0.0 | 3.2 | 0.00 | 0.00 | 0.08 | 100 | 1006.4 |
| 20260506100752 | 9 | 36 | 0.0 | 0.0 | 0.00 | 0.00 | 0.08 | 100 | 1006.4 |
| 20260506100251 | 9 | 87 | 0.0 | 0.0 | 0.00 | 0.00 | 0.08 | 100 | 1006.4 |
| 20260506095751 | 9 | 26 | 0.0 | 1.6 | 0.00 | 0.00 | 0.08 | 100 | 1006.4 |
| 20260506095252 | 9 | 134 | 0.0 | 0.0 | 0.00 | 0.00 | 0.05 | 100 | 1006.4 |
| 20260506094751 | 9 | 191 | 1.6 | 4.8 | 0.00 | 0.00 | 0.05 | 100 | 1006.4 |
| 20260506094251 | 9 | 151 | 1.6 | 4.8 | 0.00 | 0.00 | 0.05 | 100 | 1006.4 |
| 20260506093751 | 9 | 68 | 0.0 | 0.0 | 0.00 | 0.00 | 0.05 | 100 | 1006.4 |
| 20260506093252 | 9 | 314 | 0.0 | 3.2 | 0.00 | 0.00 | 0.03 | 100 | 1006.4 |
| 20260506092751 | 9 | 307 | 0.0 | 3.2 | 0.00 | 0.00 | 0.03 | 99 | 1006.4 |
| 20260506092254 | 9 | 14 | 0.0 | 1.6 | 0.00 | 0.00 | 0.03 | 99 | 1006.4 |
| 20260506091751 | 9 | 62 | 0.0 | 3.2 | 0.00 | 0.00 | 0.03 | 98 | 1006.4 |
| 20260506091252 | 9 | 24 | 1.6 | 3.2 | 0.00 | 0.00 | 0.03 | 97 | 1006.4 |
| 20260506090752 | 10 | 7 | 0.0 | 1.6 | 0.00 | 0.00 | 0.03 | 97 | 1006.4 |
| 20260506090251 | 10 | 23 | 1.6 | 6.4 | 0.00 | 0.00 | 0.03 | 96 | 1006.4 |
| 20260506085751 | 10 | 15 | 1.6 | 4.8 | 0.00 | 0.00 | 0.03 | 96 | 1006.4 |
| 20260506085251 | 10 | 347 | 1.6 | 4.8 | 0.00 | 0.00 | 0.00 | 96 | 1006.4 |
| 20260506084751 | 10 | 38 | 0.0 | 3.2 | 0.00 | 0.00 | 0.00 | 95 | 1006.4 |
| 20260506084251 | 10 | 246 | 0.0 | 4.8 | 0.00 | 0.00 | 0.00 | 95 | 1006.4 |
| 20260506083751 | 10 | 8 | 1.6 | 3.2 | 0.00 | 0.00 | 0.00 | 94 | 1006.4 |
| 20260506083252 | 10 | 12 | 0.0 | 3.2 | 0.00 | 0.00 | 0.00 | 94 | 1006.4 |
| 20260506082751 | 10 | 117 | 1.6 | 4.8 | 0.00 | 0.00 | 0.00 | 94 | 1006.4 |
| 20260506082251 | 10 | 77 | 0.0 | 1.6 | 0.00 | 0.00 | 0.00 | 94 | 1006.4 |
| 20260506081751 | 10 | 31 | 1.6 | 4.8 | 0.00 | 0.00 | 0.00 | 94 | 1006.4 |
| 20260506081251 | 10 | 300 | 1.6 | 4.8 | 0.00 | 0.00 | 0.00 | 94 | 1006.4 |
| 20260506080751 | 10 | 39 | 1.6 | 6.4 | 0.00 | 0.00 | 0.00 | 94 | 1006.4 |
| 20260506080252 | 10 | 22 | 3.2 | 8.0 | 0.00 | 0.00 | 0.00 | 94 | 1006.4 |
| 20260506073251 | 9 | 13 | 1.6 | 6.4 | 0.00 | 0.00 | 0.00 | 95 | 1006.4 |
| 20260506072751 | 9 | 350 | 3.2 | 6.4 | 0.00 | 0.00 | 0.00 | 95 | 1006.8 |
| 20260506072251 | 9 | 46 | 3.2 | 9.7 | 0.00 | 0.00 | 0.00 | 96 | 1006.8 |
| 20260506071751 | 9 | 9 | 4.8 | 11.3 | 0.00 | 0.00 | 0.00 | 96 | 1006.8 |
| 20260506071251 | 9 | 12 | 3.2 | 11.3 | 0.00 | 0.00 | 0.00 | 96 | 1007.1 |
| 20260506070751 | 9 | 54 | 3.2 | 6.4 | 0.00 | 0.00 | 0.00 | 96 | 1007.1 |
| 20260506070251 | 9 | 74 | 1.6 | 4.8 | 0.00 | 0.00 | 0.00 | 97 | 1007.1 |
| 20260506062251 | 8 | 38 | 0.0 | 3.2 | 0.00 | 0.00 | 0.00 | 96 | 1007.8 |
| 20260506061752 | 8 | 304 | 0.0 | 0.0 | 0.00 | 0.00 | 0.00 | 96 | 1007.5 |
| 20260506061252 | 8 | 60 | 0.0 | 1.6 | 0.00 | 0.00 | 0.00 | 96 | 1007.8 |
| 20260506060751 | 8 | 51 | 0.0 | 0.0 | 0.00 | 0.00 | 0.00 | 96 | 1007.8 |
| 20260506060251 | 8 | 3 | 0.0 | 3.2 | 0.00 | 0.00 | 0.00 | 96 | 1007.8 |
| 20260506051252 | 9 | 69 | 0.0 | 1.6 | 0.00 | 0.00 | 0.00 | 94 | 1008.5 |
| 20260506050752 | 9 | 310 | 0.0 | 3.2 | 0.00 | 0.00 | 0.00 | 94 | 1008.5 |
| 20260506050251 | 10 | 80 | 0.0 | 0.0 | 0.00 | 0.00 | 0.00 | 94 | 1008.5 |
| 20260506044752 | 10 | 333 | 0.0 | 1.6 | 0.00 | 0.00 | 0.00 | 93 | 1008.5 |
| 20260506044252 | 10 | 12 | 0.0 | 0.0 | 0.00 | 0.00 | 0.00 | 92 | 1008.5 |
| 20260506043751 | 10 | 63 | 0.0 | 3.2 | 0.00 | 0.00 | 0.00 | 92 | 1008.5 |
| 20260506043252 | 10 | 319 | 0.0 | 4.8 | 0.00 | 0.00 | 0.00 | 91 | 1008.5 |
| 20260506042752 | 10 | 84 | 0.0 | 3.2 | 0.00 | 0.00 | 0.00 | 91 | 1008.5 |
| 20260506042251 | 10 | 2 | 1.6 | 4.8 | 0.00 | 0.00 | 0.00 | 91 | 1008.5 |
| 20260506041751 | 10 | 6 | 1.6 | 4.8 | 0.00 | 0.00 | 0.00 | 90 | 1008.5 |
| 20260506041251 | 10 | 16 | 0.0 | 4.8 | 0.00 | 0.00 | 0.00 | 90 | 1008.5 |
| 20260506040752 | 11 | 32 | 0.0 | 3.2 | 0.00 | 0.00 | 0.00 | 90 | 1008.5 |
| 20260506040251 | 11 | 54 | 0.0 | 3.2 | 0.00 | 0.00 | 0.53 | 89 | 1008.5 |
| 20260506035751 | 11 | 43 | 1.6 | 6.4 | 0.00 | 0.00 | 0.53 | 90 | 1008.8 |
| 20260506035251 | 11 | 49 | 1.6 | 4.8 | 0.00 | 0.00 | 0.53 | 90 | 1008.5 |
| 20260506034752 | 11 | 217 | 1.6 | 4.8 | 0.00 | 0.00 | 0.53 | 89 | 1008.8 |
| 20260506034251 | 11 | 93 | 1.6 | 4.8 | 0.00 | 0.00 | 0.53 | 89 | 1008.8 |
| 20260506033752 | 11 | 8 | 0.0 | 1.6 | 0.00 | 0.00 | 0.53 | 89 | 1008.8 |
| 20260506033251 | 11 | 316 | 1.6 | 6.4 | 0.00 | 0.00 | 0.53 | 89 | 1008.8 |
| 20260506032752 | 11 | 27 | 3.2 | 8.0 | 0.00 | 0.00 | 0.53 | 88 | 1008.8 |
| 20260506032251 | 11 | 33 | 1.6 | 6.4 | 0.00 | 0.00 | 0.53 | 88 | 1009.1 |
| 20260506031751 | 11 | 19 | 3.2 | 6.4 | 0.00 | 0.00 | 0.53 | 87 | 1008.8 |
| 20260506031251 | 11 | 20 | 3.2 | 6.4 | 0.00 | 0.00 | 0.53 | 87 | 1008.8 |
| 20260506030751 | 11 | 5 | 3.2 | 9.7 | 0.00 | 0.00 | 0.53 | 87 | 1008.8 |
| 20260506030252 | 11 | 34 | 3.2 | 8.0 | 0.00 | 0.00 | 0.53 | 87 | 1008.8 |
| 20260506025751 | 11 | 54 | 3.2 | 6.4 | 0.00 | 0.00 | 0.53 | 87 | 1009.1 |
| 20260506025256 | 11 | 65 | 3.2 | 11.3 | 0.00 | 0.00 | 0.53 | 87 | 1009.1 |
| 20260506024752 | 11 | 106 | 1.6 | 8.0 | 0.00 | 0.00 | 0.53 | 87 | 1009.1 |
| 20260506024251 | 11 | 63 | 1.6 | 8.0 | 0.00 | 0.00 | 0.53 | 88 | 1009.1 |
| 20260506023751 | 11 | 55 | 3.2 | 6.4 | 0.00 | 0.00 | 0.53 | 87 | 1009.1 |
| 20260506023252 | 11 | 45 | 1.6 | 4.8 | 0.00 | 0.00 | 0.53 | 88 | 1009.5 |
| 20260506022753 | 11 | 95 | 1.6 | 8.0 | 0.00 | 0.00 | 0.53 | 87 | 1009.5 |
| 20260506022251 | 11 | 58 | 1.6 | 6.4 | 0.00 | 0.00 | 0.53 | 87 | 1009.1 |
| 20260506021751 | 11 | 55 | 1.6 | 4.8 | 0.00 | 0.00 | 0.53 | 88 | 1009.1 |